STARLINK-35955, 66635

Orbit data source: Space-Track

STARLINK-35955, 66635 is a payload satellite owned by SpaceX/Seattle (US) in LEO that was launched on Sun, 23 Nov 2025 UTC via an FALCON 9 launch vehicle from the Air Force Western Test Range (AFWTR). Payload-class satellites include a variety of spacecraft equipped with specific instruments for various scientific and technological missions. These include communications satellites like Starlink; space stations such as the ISS; scientific satellites like the Hubble; Earth observation satellites from companies like Planet Labs, Umbra, and HawkEye 360; GPS; miniature CubeSats for education and research; and military/defense satellites.

Loading next visibility...
Identifier
66635, 2025-271U
Orbit
LEO
Country
Flag of USUS
Related business
Manufacturer
SpaceX/Seattle
Mission
Operational Commercial Communications
Bus & Motor
STARLINK V2MO, Unknown motor
Mass
575 kg wet, ~530 kg dry
Launch date (UTC)
2025-11-23 (2 months ago)
Launch vehicle
FALCON 9
Launch site
Air Force Western Test Range (AFWTR)
Object type
Payload
Rocket body
Debris
Shape & HBR
Box + 2 Pan, 17.7 m
Radar Cross Section
36.964 m²

Expand to show TLE details & history
Last TLE update: 7 hours ago

TLE from 7 hours ago
0 STARLINK-35955
1 66635U 25271U   26037.06856500  .00060685  00000-0  20412-2 0  9997
2 66635  53.1598 286.9342 0000938 107.0468 253.0635 15.30250922 12724
Epoch: 2026-02-06T01:38Z
TLE epoch observation values (Epoch: 2026-02-06T01:38:44.015Z)
Latitude
-0.0001°
Longitude
126.03899°
Altitude
476.15 km
Speed
7.629 km/s
True Right ascension
19h 07m 44s
True Declination
0° 00' 00"
Sunlit
Object was in daylight at epoch
Visualization orbit readout
Latitude
Unknown
Longitude
Unknown
Altitude
Unknown
Speed
Unknown
Apparent Right ascension
Unknown
Apparent Declination
Unknown
Sunlit
N/A
Visualization observer readout
Local Sidereal Time
10:35:32
Azimuth
Unknown
Elevation
Unknown
Doppler factor
Unknown
Orbital elements
Apogee altitude
475.962 km
Perigee altitude
474.677 km
Semi-major axis
6,853.456 km
Eccentricity
0.00009
Inclination
53.1598°
RAAN
286.9342°
Arg. of periapsis
107.0468°
True anomaly
253.05322°
Mean anomaly
253.0635°
Eccentric anomaly
253.05836°
Mean motion
3.82542 °/min
Orbital period
94.11 mins
BSTAR
0.0020412
Loading maneuver chart data...
Computing Atmospheric mass density...
Loading historical data...
Loading historical data...
Loading historical data...
Loading historical data...
Loading historical data...
Loading historical data...
Loading historical data...

Documentation

Showing up to 5 results
|